[[{"header":{"parameterUnit":"m.s-1","parameterCategory":1,"la1":30.2992,"la2":30.254,"lo1":-89.0895,"lo2":-89.0443,"dy":0.0025,"dx":0.0025,"nx":19,"ny":19,"refTime":"2026-03-24T03:00:00:Z","depth":0,"parameterNumber":2,"parameterNumberName":"U-component_of_WINDS"},"data":[0,0,0,3.1647,3.165,3.1728,3.1728,3.1864,3.1865,0,0,0,0,0,0,0,0,0,0,0,3.1643,3.1645,3.1647,3.165,3.1728,3.1728,3.1863,3.1865,0,0,0,0,0,0,0,0,0,0,0,3.1642,3.1644,3.1646,3.165,3.1728,3.1728,3.1863,3.1792,0,0,0,0,0,0,0,0,0,0,3.171,3.1724,3.1644,3.1646,3.1651,3.1728,3.1728,3.1788,3.1796,3.1842,0,3.1886,0,3.1878,3.1876,3.1877,0,0,0,3.1636,3.1717,3.1721,3.1647,3.1652,3.1728,3.1689,3.1792,3.1802,3.1854,3.1888,3.1892,3.188,3.1877,3.1878,3.2186,3.2188,0,0,3.1632,3.1668,3.1714,3.1728,3.1716,3.1686,3.1691,3.1797,3.1838,3.1888,3.1895,3.1882,3.1878,3.188,3.2184,3.2186,0,0,0,3.1629,3.1666,3.1666,3.1723,3.1735,3.1689,3.1695,3.1833,3.183,3.1896,3.1884,3.1879,3.1881,3.2181,3.2185,3.2322,0,0,0,3.1625,3.1663,3.1665,3.1688,3.1733,3.1784,3.1729,3.1823,3.1834,3.1883,3.1879,3.1883,3.2179,3.2183,3.2313,3.2382,0,0,0,3.1632,3.1664,3.1682,3.169,3.1724,3.1782,3.1784,3.1824,3.1827,3.1877,3.1883,3.2177,3.2182,3.2306,3.2369,3.2474,0,0,0,3.1649,3.1803,3.1684,3.1852,3.1724,3.1866,3.1783,3.1887,3.1946,3.188,3.2179,3.2184,3.2303,3.2361,3.2466,3.2569,3.2615,0,0,3.1864,3.183,3.1926,3.1822,3.1994,3.1851,3.2044,3.2064,3.2037,3.2138,3.2145,3.2316,3.2368,3.2472,3.2861,3.2898,0,0,0,3.2006,3.2076,3.2113,3.217,3.2189,3.2211,3.2198,3.2206,3.229,3.2095,3.2381,3.2411,3.2471,3.2518,3.255,3.26,3.2208,3.2207,3.2207,3.2362,3.2317,3.2474,3.244,3.2497,3.2482,3.2525,3.2533,3.2472,3.2541,3.257,3.2812,3.2869,3.2892,3.2945,3.2621,3.2621,3.2622,3.2622,3.2672,3.2764,3.268,3.2801,3.2755,3.2856,3.285,3.2803,3.2893,3.2785,3.2835,3.2722,3.2934,3.2978,3.2632,3.2631,3.2629,3.2628,3.2628,3.2901,3.2937,3.2943,3.3022,3.3089,3.305,3.314,3.3094,3.3052,3.3102,3.313,3.3127,3.312,3.3118,3.3119,3.312,3.3121,3.3121,3.3122,3.3135,3.3138,3.3218,3.3252,3.3284,3.332,3.3308,3.3339,3.3361,3.3321,3.3321,3.3255,3.2963,3.2891,3.3135,3.3133,3.3131,3.313,3.3129,3.3467,3.3385,3.3509,3.3541,3.3578,3.3649,3.3589,3.3656,3.3675,3.3722,3.3645,3.3436,3.3399,3.3373,3.3314,3.3652,3.3652,3.3652,3.3653,3.366,3.3637,3.3754,3.3809,3.3857,3.3816,3.3961,3.3955,3.3936,3.3945,3.389,3.3806,3.3782,3.3759,3.3726,3.3669,3.4091,3.4092,3.4092,3.3862,3.3842,3.3973,3.3951,3.3978,3.4002,3.4137,3.4205,3.4166,3.4109,3.3952,3.3934,3.3798,3.3756,3.3696,3.3644,3.3539,0,0]},{"header":{"parameterUnit":"m.s-1","parameterCategory":1,"la1":30.2992,"la2":30.254,"lo1":-89.0895,"lo2":-89.0443,"dy":0.0025,"dx":0.0025,"nx":19,"ny":19,"refTime":"2026-03-24T03:00:00:Z","depth":0,"parameterNumber":3,"parameterNumberName":"V-component_of_WINDS"},"data":[0,0,0,2.6622,2.6629,2.701,2.7011,2.7489,2.7493,0,0,0,0,0,0,0,0,0,0,0,2.6504,2.6507,2.6621,2.663,2.7009,2.7011,2.7488,2.7493,0,0,0,0,0,0,0,0,0,0,0,2.6503,2.6506,2.651,2.6632,2.7009,2.7011,2.7487,2.7203,0,0,0,0,0,0,0,0,0,0,2.6836,2.6723,2.6505,2.651,2.6634,2.7009,2.7012,2.719,2.7221,2.7313,0,2.7393,0,2.745,2.7524,2.7526,0,0,0,2.6634,2.6697,2.6803,2.6511,2.6637,2.7008,2.684,2.7207,2.7243,2.7354,2.74,2.7418,2.7458,2.7527,2.753,2.8042,2.8044,0,0,2.6613,2.657,2.6779,2.6826,2.6767,2.6827,2.6851,2.7229,2.7276,2.7402,2.7429,2.7466,2.753,2.7534,2.804,2.8043,0,0,0,2.655,2.6556,2.6653,2.6806,2.6875,2.6838,2.6866,2.726,2.7295,2.7435,2.7472,2.7533,2.7539,2.8038,2.8041,2.8107,0,0,0,2.6538,2.6519,2.6643,2.6621,2.6868,2.7072,2.6888,2.7269,2.7313,2.7469,2.7533,2.7543,2.8036,2.804,2.81,2.8146,0,0,0,2.6481,2.6512,2.6565,2.6618,2.6779,2.7067,2.7124,2.7279,2.7335,2.7526,2.7545,2.8034,2.8039,2.8094,2.8136,2.8267,0,0,0,2.6408,2.6621,2.6565,2.6817,2.6776,2.7104,2.7122,2.737,2.7541,2.7536,2.8036,2.8041,2.8092,2.813,2.826,2.8369,2.8411,0,0,2.6653,2.6649,2.68,2.6761,2.7088,2.705,2.7387,2.7586,2.7645,2.7906,2.792,2.8103,2.8136,2.8266,2.8658,2.869,0,0,0,2.6863,2.6971,2.7067,2.7227,2.7382,2.7518,2.7669,2.7742,2.7966,2.777,2.8187,2.8208,2.8286,2.834,2.8368,2.8437,2.8064,2.8064,2.8063,2.7148,2.7208,2.7461,2.7567,2.7722,2.7873,2.8004,2.8128,2.8147,2.8243,2.8322,2.8552,2.8614,2.8635,2.8706,2.8384,2.8385,2.8385,2.8385,2.7511,2.7672,2.7687,2.7938,2.8,2.8212,2.8364,2.8369,2.8575,2.8499,2.8571,2.8483,2.8669,2.8734,2.8391,2.839,2.8389,2.8389,2.8388,2.7704,2.7792,2.7875,2.811,2.8284,2.8383,2.8578,2.8628,2.8677,2.8748,2.8835,2.8834,2.8839,2.8786,2.8786,2.8787,2.8788,2.8789,2.8789,2.7872,2.7963,2.8122,2.8301,2.8408,2.8555,2.8706,2.8814,2.8945,2.8966,2.8967,2.8974,2.8676,2.8599,2.8802,2.88,2.8798,2.8797,2.8796,2.8217,2.8146,2.839,2.8497,2.871,2.8877,2.8937,2.915,2.9246,2.934,2.9331,2.9102,2.9102,2.9081,2.9018,2.9317,2.9317,2.9317,2.9317,2.838,2.8384,2.8643,2.881,2.898,2.9057,2.9329,2.9447,2.9558,2.9621,2.9584,2.9505,2.948,2.9496,2.9465,2.9407,2.9799,2.9799,2.98,2.8595,2.8617,2.884,2.8945,2.9114,2.9257,2.9514,2.9705,2.9816,2.982,2.967,2.965,2.9522,2.9478,2.948,2.9432,2.9327,0,0]}]]